Regional Weather Roundup
Issued by NWS

Home | Current Version | Previous Version | Graphics & Text | Print | Product List | Glossary Off
Versions: 1 2 3 4 5 6 7 8 9 10 11 12 13 14 15 16 17 18 19 20 21 22 23 24 25 26 27 28 29 30 31 32 33 34 35 36 37 38 39 40 41 42 43 44 45 46 47 48 49 50

000
ASUS43 KFSD 261710
RWRSD

WEATHER ROUNDUP FOR SOUTH DAKOTA
NATIONAL WEATHER SERVICE SIOUX FALLS SD
1200 PM CDT THU MAY 26 2016

NOTE: "FAIR" INDICATES FEW OR NO CLOUDS BELOW 12,000 FEET WITH NO
SIGNIFICANT WEATHER AND/OR OBSTRUCTIONS TO VISIBILITY.


SDZ001>005-009-010-012>017-261800-
NORTHWEST AND NORTH CENTRAL SOUTH DAKOTA

CITY           SKY/WX    TMP DP  RH WIND       PRES   REMARKS
BUFFALO          N/A     65  43  44 W16G25    29.81S
FAITH            N/A     68  42  38 W8        29.86S
MOBRIDGE       SUNNY     70  50  49 SW9       29.82F
$$

SDZ012>016-024>037-041>051-057-063-072>074-261800-
SOUTHWEST AND SOUTH CENTRAL SOUTH DAKOTA

CITY           SKY/WX    TMP DP  RH WIND       PRES   REMARKS
RAPID CTY ARPT PTSUNNY   65  43  44 N8        29.89F
PIERRE         SUNNY     71  54  54 S10       29.85F
CUSTER         MOSUNNY   60  33  36 W9        29.96S
ELLSWORTH AFB  SUNNY     65  43  44 N7G17     29.89F
PHILIP         SUNNY     70  51  51 MISG      29.87F
PINE RIDGE     SUNNY     67  45  45 VRB6      29.90F
WINNER         FAIR      73  53  49 S13       29.88F
$$

SDZ004>011-016>023-039-040-261800-
NORTHEAST SOUTH DAKOTA

CITY           SKY/WX    TMP DP  RH WIND       PRES   REMARKS
ABERDEEN       SUNNY     70  52  52 SW7       29.85S
WATERTOWN      SUNNY     72  50  45 NW12G18   29.85F
BROOKINGS      SUNNY     70  51  51 NW12      29.88R
SISSETON         N/A     74  45  35 NW22      29.81R
$$

SDZ017-020-022-023-036>040-048>070-261800-
SOUTHEAST SOUTH DAKOTA

CITY           SKY/WX    TMP DP  RH WIND       PRES   REMARKS
SIOUX FALLS    PTSUNNY   73  47  39 CALM      29.89R
HURON          SUNNY     69  52  54 W6        29.88S
CHAMBERLAIN    SUNNY     73  57  56 S10       29.88F
MITCHELL       MOSUNNY   72  52  49 CALM      29.89S
YANKTON        CLOUDY    68  54  60 CALM      29.87F
$$

ABBREVIATIONS USED IN REMARKS
   TC - TEMPERATURE IN CELSIUS
  WCI - WIND CHILL INDEX
   HX - HEAT INDEX
  VSB - VISIBILITY




USA.gov is the U.S. government's official web portal to all federal, state and local government web resources and services.